AMC-15

导读

AMC-15卫星,由SES安排发射,于2004年10月14日成功发射入轨。这是一颗先进的混合Ku、Ka频段通信卫星,重约4.5吨,设计服役年限为15年。它主要为南北美洲大陆及加勒比海地区提供服务,可支持数字电视传输、卫星通信、互联网宽带接入等业务,同时补充覆盖西经105.5°的直播卫星信号,推动区域通信媒体发展。

基本信息
目录编号:
28446
目录名称:
AMC-15
国际标识:
2004-041A
轨道中心:
EARTH
卫星名称:
AMC-15
卫星全名:
--
卫星状态:
在轨 (已飞行7986 天)
发射日期:
2004-10-14 UTC
国别 :
(SES)
星等 :
--
轨道信息
数据来源 国际轨道数据 AOE轨道数据
星历时间 2026-08-25T22:17:56+0800
11小时前
查看轨道信息
2026-08-19T16:00:00+0800
6天前
查看轨道信息
半长轴 42164.644km 42164.84km
偏心率 0.000245 0.0002368
轨道倾角 0.062° 0.061°
近地点辐角 203.817° 219.996°
升交点赤经 286.369° 280.674°
平近点角 313.111° 201.946°
近地点 35776.176km 35776.718km
远地点 35796.838km 35796.688km
周期 1436.092分钟 1436.102分钟
每日圈数 1.002721 1.002714
详细信息
使用方式:
暂无
2D轨道图
3D轨道图
轨道高度分析图
轨道倾角分析图
轨道综合分析图
查看轨道综合分析图